Regional Weather Roundup
Issued by NWS Nashville, TN

Home | Current Version | Previous Version | Text Only | Print | Product List | Glossary On
Versions: 1 2 3 4 5 6 7 8 9 10 11 12 13 14 15 16 17 18 19 20 21 22 23 24 25 26 27
000
ASUS44 KOHX 261810
RWROHX
MIDDLE TENNESSEE HOURLY WEATHER ROUNDUP
NATIONAL WEATHER SERVICE NASHVILLE TN
100 PM CDT TUE JUL 26 2016

NOTE: "FAIR" INDICATES FEW OR NO CLOUDS BELOW 12,000 FEET WITH
NO SIGNIFICANT WEATHER AND/OR OBSTRUCTIONS TO VISIBILITY.

* THESE REPORTS ARE NOT UNDER NWS QUALITY CONTROL AND MAY NOT
  REPORT WEATHER SUCH AS PRECIPITATION AND FOG.


TNZ005>011-023>034-057-059-062>066-078-080-261900
...NORTHERN MIDDLE TENNESSEE...

CITY           SKY/WX    TMP DP  RH WIND       PRES   REMARKS
CLARKSVILLE    SUNNY     90  73  57 W6        30.01F HX  98
CROSSVILLE     CLOUDY    85  71  63 SW3       30.11F HX  90
NASHVILLE      PTSUNNY   95  68  41 NW6       30.02F HX  99
SMYRNA         MOSUNNY   93  70  47 NE7       30.02F HX  98
SPARTA         SUNNY     93  75  55 VRB3      30.04F HX 104
$$
TNZ056-058-060-061-075>077-079-093>097-261900
...SOUTHERN MIDDLE TENNESSEE...

CITY           SKY/WX    TMP DP  RH WIND       PRES   REMARKS
COLUMBIA       MOSUNNY   93  72  49 E6        30.01F HX 100
FAYETTEVILLE   SUNNY     90  73  58 VRB3      30.04F HX  98
MCMINNVILLE    SUNNY     91  77  62 VRB3      30.06F HX 105
SHELBYVILLE    SUNNY     91  79  66 CALM      30.05F HX 107
TULLAHOMA      SUNNY     90  70  51 S6        30.07F HX  95
WINCHESTER     SUNNY     91  72  52 CALM      30.05F HX  98
$$


...KEY TO REMARKS...
VSB - VISIBILITY IN MILES
WCI - WIND CHILL INDEX
HX  - HEAT INDEX





USA.gov is the U.S. government's official web portal to all federal, state and local government web resources and services.